| time (UTC) | temp C | wind direction | speed KPH | gust KPH | rain 1hr cm | rain 24hr cm | rain mn cm | humidity % | barometer mb |
| 20260504180923 | 12 | 328 | 9.7 | 22.5 | 0.00 | 0.00 | 0.00 | 55 | 1004.1 |
| 20260504180415 | 12 | 303 | 8.0 | 22.5 | 0.00 | 0.00 | 0.00 | 55 | 1004.1 |
| 20260504180222 | 12 | 303 | 8.0 | 22.5 | 0.00 | 0.00 | 0.00 | 55 | 1004.1 |
| 20260504175522 | 12 | 327 | 9.7 | 27.4 | 0.00 | 0.00 | 0.00 | 57 | 1004.1 |
| 20260504175415 | 12 | 323 | 11.3 | 27.4 | 0.00 | 0.00 | 0.00 | 54 | 1004.1 |
| 20260504174823 | 12 | 313 | 8.0 | 24.1 | 0.00 | 0.00 | 0.00 | 54 | 1004.0 |
| 20260504174415 | 12 | 334 | 9.7 | 25.7 | 0.00 | 0.00 | 0.00 | 54 | 1003.8 |
| 20260504174126 | 12 | 334 | 9.7 | 25.7 | 0.00 | 0.00 | 0.00 | 54 | 1003.8 |
| 20260504173415 | 12 | 327 | 12.9 | 30.6 | 0.00 | 0.00 | 0.00 | 50 | 1004.0 |
| 20260504172723 | 12 | 330 | 9.7 | 30.6 | 0.00 | 0.00 | 0.00 | 49 | 1003.7 |
| 20260504172414 | 13 | 329 | 8.0 | 29.0 | 0.00 | 0.00 | 0.00 | 49 | 1003.7 |
| 20260504172023 | 13 | 329 | 8.0 | 29.0 | 0.00 | 0.00 | 0.00 | 49 | 1003.7 |
| 20260504171414 | 13 | 307 | 9.7 | 24.1 | 0.00 | 0.00 | 0.00 | 46 | 1003.6 |
| 20260504171322 | 13 | 307 | 9.7 | 24.1 | 0.00 | 0.00 | 0.00 | 46 | 1003.6 |
| 20260504170621 | 13 | 312 | 8.0 | 24.1 | 0.00 | 0.00 | 0.00 | 47 | 1003.4 |
| 20260504170414 | 13 | 318 | 9.7 | 27.4 | 0.00 | 0.00 | 0.00 | 50 | 1003.4 |
| 20260504160415 | 13 | 337 | 12.9 | 30.6 | 0.00 | 0.00 | 0.00 | 57 | 1002.7 |
| 20260504160322 | 13 | 337 | 12.9 | 30.6 | 0.00 | 0.00 | 0.00 | 57 | 1002.7 |
| 20260504150723 | 12 | 330 | 9.7 | 22.5 | 0.00 | 0.00 | 0.00 | 63 | 1001.9 |
| 20260504150415 | 12 | 338 | 12.9 | 27.4 | 0.00 | 0.00 | 0.00 | 62 | 1001.9 |
| 20260504141123 | 11 | 334 | 9.7 | 17.7 | 0.00 | 0.00 | 0.00 | 69 | 1001.7 |
| 20260504140415 | 11 | 340 | 6.4 | 16.1 | 0.00 | 0.00 | 0.00 | 70 | 1001.7 |
| 20260504130415 | 11 | 338 | 3.2 | 9.7 | 0.00 | 0.00 | 0.00 | 79 | 1001.1 |
| 20260504130122 | 11 | 338 | 3.2 | 9.7 | 0.00 | 0.00 | 0.00 | 79 | 1001.1 |
| 20260504110414 | 10 | 231 | 3.2 | 12.9 | 0.00 | 0.00 | 0.00 | 78 | 999.5 |
| 20260504100415 | 12 | 263 | 4.8 | 19.3 | 0.00 | 0.00 | 0.00 | 68 | 999.7 |
| 20260504081414 | 13 | 220 | 11.3 | 22.5 | 0.00 | 0.00 | 0.00 | 53 | 999.3 |
| 20260504080722 | 13 | 219 | 12.9 | 22.5 | 0.00 | 0.00 | 0.00 | 52 | 999.4 |
| 20260504080414 | 12 | 222 | 11.3 | 22.5 | 0.00 | 0.00 | 0.00 | 52 | 999.5 |
| 20260504060123 | 12 | 230 | 6.4 | 14.5 | 0.00 | 0.00 | 0.00 | 51 | 1001.3 |
| 20260504050527 | 12 | 219 | 6.4 | 12.9 | 0.00 | 0.00 | 0.00 | 54 | 1002.1 |
| 20260504050415 | 12 | 223 | 6.4 | 11.3 | 0.00 | 0.00 | 0.00 | 53 | 1002.3 |
| 20260504045822 | 12 | 217 | 3.2 | 9.7 | 0.00 | 0.00 | 0.00 | 53 | 1002.3 |
| 20260504045414 | 12 | 217 | 4.8 | 9.7 | 0.00 | 0.00 | 0.00 | 53 | 1002.4 |
| 20260504045122 | 12 | 217 | 4.8 | 9.7 | 0.00 | 0.00 | 0.00 | 53 | 1002.4 |
| 20260504044415 | 12 | 240 | 3.2 | 11.3 | 0.00 | 0.00 | 0.00 | 52 | 1002.4 |
| 20260504043722 | 12 | 217 | 4.8 | 11.3 | 0.00 | 0.00 | 0.00 | 52 | 1002.6 |
| 20260504043415 | 12 | 224 | 4.8 | 8.0 | 0.00 | 0.00 | 0.00 | 52 | 1002.6 |
| 20260504043023 | 12 | 224 | 4.8 | 8.0 | 0.00 | 0.00 | 0.00 | 52 | 1002.6 |
| 20260504042415 | 12 | 224 | 4.8 | 11.3 | 0.00 | 0.00 | 0.00 | 51 | 1002.7 |
| 20260504042326 | 12 | 224 | 4.8 | 11.3 | 0.00 | 0.00 | 0.00 | 51 | 1002.7 |
| 20260504041624 | 12 | 216 | 4.8 | 11.3 | 0.00 | 0.00 | 0.00 | 51 | 1002.6 |
| 20260504041415 | 12 | 233 | 4.8 | 9.7 | 0.00 | 0.00 | 0.00 | 50 | 1002.9 |
| 20260504040927 | 12 | 234 | 4.8 | 9.7 | 0.00 | 0.00 | 0.00 | 49 | 1002.9 |
| 20260504040414 | 12 | 234 | 3.2 | 8.0 | 0.00 | 0.00 | 0.00 | 49 | 1003.0 |
| 20260504040223 | 12 | 234 | 3.2 | 8.0 | 0.00 | 0.00 | 0.00 | 49 | 1003.0 |
| 20260504035523 | 12 | 234 | 4.8 | 9.7 | 0.00 | 0.00 | 0.00 | 49 | 1003.2 |
| 20260504035414 | 12 | 234 | 4.8 | 9.7 | 0.00 | 0.00 | 0.00 | 48 | 1003.4 |
| 20260504034822 | 12 | 242 | 3.2 | 9.7 | 0.00 | 0.00 | 0.00 | 48 | 1003.4 |
| 20260504034414 | 12 | 264 | 1.6 | 8.0 | 0.00 | 0.00 | 0.00 | 49 | 1003.5 |
| 20260504034123 | 12 | 264 | 1.6 | 8.0 | 0.00 | 0.00 | 0.00 | 49 | 1003.5 |
| 20260504033414 | 12 | 264 | 3.2 | 8.0 | 0.00 | 0.00 | 0.00 | 49 | 1003.6 |
| 20260504032721 | 12 | 264 | 3.2 | 6.4 | 0.00 | 0.00 | 0.00 | 50 | 1003.6 |
| 20260504032416 | 12 | 264 | 1.6 | 6.4 | 0.00 | 0.00 | 0.00 | 49 | 1003.8 |
| 20260504032023 | 12 | 264 | 1.6 | 6.4 | 0.00 | 0.00 | 0.00 | 49 | 1003.8 |
| 20260504031416 | 12 | 264 | 1.6 | 4.8 | 0.00 | 0.00 | 0.00 | 49 | 1004.0 |
| 20260504031326 | 12 | 264 | 1.6 | 4.8 | 0.00 | 0.00 | 0.00 | 49 | 1004.0 |
| 20260504030625 | 12 | 264 | 0.0 | 4.8 | 0.00 | 0.00 | 0.00 | 49 | 1004.1 |
| 20260504030416 | 12 | 264 | 1.6 | 6.4 | 0.00 | 0.00 | 0.00 | 49 | 1004.0 |
| 20260504025924 | 12 | 264 | 1.6 | 6.4 | 0.00 | 0.00 | 0.00 | 49 | 1004.0 |
| 20260504025416 | 13 | 264 | 1.6 | 4.8 | 0.00 | 0.00 | 0.00 | 49 | 1003.9 |
| 20260504025226 | 13 | 264 | 1.6 | 4.8 | 0.00 | 0.00 | 0.00 | 49 | 1003.9 |
| 20260504024524 | 13 | 264 | 1.6 | 4.8 | 0.00 | 0.00 | 0.00 | 47 | 1004.1 |
| 20260504024415 | 13 | 264 | 1.6 | 4.8 | 0.00 | 0.00 | 0.00 | 47 | 1004.1 |
| 20260504023822 | 13 | 264 | 0.0 | 4.8 | 0.00 | 0.00 | 0.00 | 46 | 1004.2 |
| 20260504023415 | 13 | 264 | 1.6 | 6.4 | 0.00 | 0.00 | 0.00 | 45 | 1004.3 |
| 20260504023122 | 13 | 264 | 1.6 | 6.4 | 0.00 | 0.00 | 0.00 | 45 | 1004.3 |
| 20260504022416 | 14 | 264 | 1.6 | 6.4 | 0.00 | 0.00 | 0.00 | 44 | 1004.3 |
| 20260504021723 | 15 | 264 | 1.6 | 4.8 | 0.00 | 0.00 | 0.00 | 43 | 1004.3 |
| 20260504021416 | 15 | 264 | 1.6 | 4.8 | 0.00 | 0.00 | 0.00 | 42 | 1004.3 |
| 20260504021025 | 15 | 264 | 1.6 | 4.8 | 0.00 | 0.00 | 0.00 | 42 | 1004.3 |
| 20260504020416 | 15 | 264 | 3.2 | 6.4 | 0.00 | 0.00 | 0.00 | 41 | 1004.4 |
| 20260504020326 | 15 | 264 | 3.2 | 6.4 | 0.00 | 0.00 | 0.00 | 41 | 1004.4 |
| 20260504015629 | 16 | 264 | 1.6 | 6.4 | 0.00 | 0.00 | 0.00 | 40 | 1004.4 |
| 20260504015415 | 16 | 264 | 1.6 | 3.2 | 0.00 | 0.00 | 0.00 | 40 | 1004.5 |
| 20260504014925 | 16 | 264 | 1.6 | 4.8 | 0.00 | 0.00 | 0.00 | 40 | 1004.5 |
| 20260504014415 | 16 | 264 | 1.6 | 8.0 | 0.00 | 0.00 | 0.00 | 38 | 1004.5 |
| 20260504014224 | 16 | 264 | 1.6 | 8.0 | 0.00 | 0.00 | 0.00 | 38 | 1004.5 |
| 20260504013522 | 17 | 264 | 1.6 | 8.0 | 0.00 | 0.00 | 0.00 | 37 | 1004.6 |
| 20260504013414 | 17 | 264 | 1.6 | 4.8 | 0.00 | 0.00 | 0.00 | 36 | 1004.6 |
| 20260504012822 | 17 | 264 | 1.6 | 4.8 | 0.00 | 0.00 | 0.00 | 36 | 1004.6 |
| 20260504012414 | 17 | 264 | 3.2 | 8.0 | 0.00 | 0.00 | 0.00 | 35 | 1004.6 |
| 20260504012123 | 17 | 264 | 3.2 | 8.0 | 0.00 | 0.00 | 0.00 | 35 | 1004.6 |
| 20260504011416 | 18 | 264 | 1.6 | 9.7 | 0.00 | 0.00 | 0.00 | 34 | 1004.6 |
| 20260504010724 | 18 | 264 | 3.2 | 9.7 | 0.00 | 0.00 | 0.00 | 34 | 1004.7 |
| 20260504010415 | 18 | 265 | 3.2 | 9.7 | 0.00 | 0.00 | 0.00 | 33 | 1004.7 |
| 20260504010024 | 18 | 265 | 3.2 | 9.7 | 0.00 | 0.00 | 0.00 | 33 | 1004.7 |
| 20260504005415 | 19 | 240 | 3.2 | 12.9 | 0.00 | 0.00 | 0.00 | 32 | 1004.8 |
| 20260504005327 | 19 | 240 | 3.2 | 12.9 | 0.00 | 0.00 | 0.00 | 32 | 1004.8 |
| 20260504004623 | 19 | 237 | 3.2 | 9.7 | 0.00 | 0.00 | 0.00 | 32 | 1004.7 |
| 20260504004414 | 20 | 237 | 4.8 | 16.1 | 0.00 | 0.00 | 0.00 | 31 | 1004.8 |
| 20260504003923 | 20 | 242 | 6.4 | 17.7 | 0.00 | 0.00 | 0.00 | 31 | 1004.8 |
| 20260504003414 | 20 | 250 | 6.4 | 17.7 | 0.00 | 0.00 | 0.00 | 31 | 1004.9 |
| 20260504003225 | 20 | 250 | 6.4 | 17.7 | 0.00 | 0.00 | 0.00 | 31 | 1004.9 |
| 20260504002524 | 20 | 243 | 6.4 | 14.5 | 0.00 | 0.00 | 0.00 | 30 | 1004.8 |
| 20260504002416 | 20 | 245 | 6.4 | 17.7 | 0.00 | 0.00 | 0.00 | 31 | 1004.9 |
| 20260504001824 | 20 | 249 | 4.8 | 17.7 | 0.00 | 0.00 | 0.00 | 30 | 1004.9 |
| 20260504001414 | 20 | 249 | 8.0 | 16.1 | 0.00 | 0.00 | 0.00 | 29 | 1005.0 |
| 20260504001122 | 20 | 249 | 8.0 | 16.1 | 0.00 | 0.00 | 0.00 | 29 | 1005.0 |
| 20260504000416 | 20 | 249 | 6.4 | 17.7 | 0.00 | 0.00 | 0.00 | 29 | 1005.1 |
| 20260503235723 | 20 | 230 | 3.2 | 19.3 | 0.00 | 0.00 | 0.00 | 31 | 1005.1 |
| 20260503235415 | 20 | 239 | 8.0 | 22.5 | 0.00 | 0.00 | 0.00 | 29 | 1005.1 |
| 20260503235022 | 20 | 239 | 8.0 | 22.5 | 0.00 | 0.00 | 0.00 | 29 | 1005.1 |
| 20260503234415 | 21 | 237 | 8.0 | 14.5 | 0.00 | 0.00 | 0.00 | 28 | 1005.3 |
| 20260503234323 | 21 | 237 | 8.0 | 14.5 | 0.00 | 0.00 | 0.00 | 28 | 1005.3 |
| 20260503233623 | 21 | 257 | 6.4 | 17.7 | 0.00 | 0.00 | 0.00 | 31 | 1005.4 |
| 20260503233415 | 21 | 245 | 6.4 | 17.7 | 0.00 | 0.00 | 0.00 | 29 | 1005.5 |
| 20260503232922 | 21 | 248 | 9.7 | 17.7 | 0.00 | 0.00 | 0.00 | 28 | 1005.5 |
| 20260503232415 | 21 | 243 | 4.8 | 17.7 | 0.00 | 0.00 | 0.00 | 31 | 1005.5 |
| 20260503232223 | 21 | 243 | 4.8 | 17.7 | 0.00 | 0.00 | 0.00 | 31 | 1005.5 |
| 20260503231522 | 21 | 243 | 8.0 | 17.7 | 0.00 | 0.00 | 0.00 | 27 | 1005.6 |
| 20260503231414 | 21 | 257 | 4.8 | 16.1 | 0.00 | 0.00 | 0.00 | 30 | 1005.7 |
| 20260503230823 | 21 | 243 | 8.0 | 22.5 | 0.00 | 0.00 | 0.00 | 28 | 1005.7 |
| 20260503230414 | 21 | 242 | 8.0 | 22.5 | 0.00 | 0.00 | 0.00 | 31 | 1005.8 |
| 20260503230127 | 21 | 242 | 8.0 | 22.5 | 0.00 | 0.00 | 0.00 | 31 | 1005.8 |
| 20260503225414 | 21 | 227 | 6.4 | 17.7 | 0.00 | 0.00 | 0.00 | 31 | 1005.7 |
| 20260503224725 | 21 | 248 | 6.4 | 24.1 | 0.00 | 0.00 | 0.00 | 31 | 1005.8 |
| 20260503224415 | 21 | 241 | 9.7 | 24.1 | 0.00 | 0.00 | 0.00 | 31 | 1006.0 |
| 20260503224029 | 21 | 241 | 9.7 | 24.1 | 0.00 | 0.00 | 0.00 | 31 | 1006.0 |
| 20260503223414 | 21 | 242 | 4.8 | 19.3 | 0.00 | 0.00 | 0.00 | 34 | 1006.0 |
| 20260503222623 | 21 | 244 | 8.0 | 19.3 | 0.00 | 0.00 | 0.00 | 33 | 1006.0 |
| 20260503222415 | 21 | 233 | 9.7 | 17.7 | 0.00 | 0.00 | 0.00 | 33 | 1006.0 |
| 20260503221924 | 21 | 250 | 6.4 | 16.1 | 0.00 | 0.00 | 0.00 | 35 | 1006.0 |
| 20260503221415 | 21 | 239 | 6.4 | 17.7 | 0.00 | 0.00 | 0.00 | 34 | 1006.0 |
| 20260503221224 | 21 | 239 | 6.4 | 17.7 | 0.00 | 0.00 | 0.00 | 34 | 1006.0 |
| 20260503220524 | 21 | 237 | 9.7 | 17.7 | 0.00 | 0.00 | 0.00 | 34 | 1006.2 |
| 20260503220415 | 21 | 240 | 6.4 | 16.1 | 0.00 | 0.00 | 0.00 | 35 | 1006.1 |
| 20260503215822 | 21 | 228 | 4.8 | 20.9 | 0.00 | 0.00 | 0.00 | 35 | 1006.2 |
| 20260503215415 | 21 | 262 | 4.8 | 20.9 | 0.00 | 0.00 | 0.00 | 35 | 1006.3 |
| 20260503215122 | 21 | 262 | 4.8 | 20.9 | 0.00 | 0.00 | 0.00 | 35 | 1006.3 |
| 20260503214414 | 21 | 254 | 6.4 | 27.4 | 0.00 | 0.00 | 0.00 | 33 | 1006.4 |
| 20260503213725 | 21 | 249 | 11.3 | 27.4 | 0.00 | 0.00 | 0.00 | 35 | 1006.5 |
| 20260503213414 | 21 | 253 | 6.4 | 17.7 | 0.00 | 0.00 | 0.00 | 36 | 1006.6 |
| 20260503213024 | 21 | 253 | 6.4 | 17.7 | 0.00 | 0.00 | 0.00 | 36 | 1006.6 |
| 20260503212414 | 21 | 270 | 4.8 | 14.5 | 0.00 | 0.00 | 0.00 | 37 | 1006.8 |
| 20260503212321 | 21 | 270 | 4.8 | 14.5 | 0.00 | 0.00 | 0.00 | 37 | 1006.8 |
| 20260503211622 | 21 | 317 | 1.6 | 12.9 | 0.00 | 0.00 | 0.00 | 40 | 1006.8 |
| 20260503211414 | 21 | 237 | 3.2 | 12.9 | 0.00 | 0.00 | 0.00 | 38 | 1007.0 |
| 20260503210924 | 21 | 277 | 6.4 | 16.1 | 0.00 | 0.00 | 0.00 | 38 | 1007.1 |
| 20260503210416 | 21 | 287 | 4.8 | 16.1 | 0.00 | 0.00 | 0.00 | 37 | 1007.1 |
| 20260503210225 | 21 | 287 | 4.8 | 16.1 | 0.00 | 0.00 | 0.00 | 37 | 1007.1 |
| 20260503205523 | 21 | 244 | 6.4 | 17.7 | 0.00 | 0.00 | 0.00 | 36 | 1007.1 |
| 20260503205416 | 21 | 240 | 8.0 | 17.7 | 0.00 | 0.00 | 0.00 | 35 | 1007.1 |
| 20260503204823 | 20 | 320 | 3.2 | 29.0 | 0.00 | 0.00 | 0.00 | 39 | 1007.2 |
| 20260503204415 | 20 | 252 | 6.4 | 29.0 | 0.00 | 0.00 | 0.00 | 37 | 1007.3 |
| 20260503204124 | 20 | 252 | 6.4 | 29.0 | 0.00 | 0.00 | 0.00 | 37 | 1007.3 |
| 20260503203415 | 20 | 289 | 8.0 | 19.3 | 0.00 | 0.00 | 0.00 | 38 | 1007.6 |
| 20260503202723 | 20 | 316 | 8.0 | 14.5 | 0.00 | 0.00 | 0.00 | 38 | 1007.6 |
| 20260503202415 | 20 | 330 | 6.4 | 14.5 | 0.00 | 0.00 | 0.00 | 37 | 1007.6 |
| 20260503202022 | 20 | 330 | 6.4 | 14.5 | 0.00 | 0.00 | 0.00 | 37 | 1007.6 |
| 20260503201415 | 20 | 272 | 4.8 | 14.5 | 0.00 | 0.00 | 0.00 | 35 | 1008.0 |
| 20260503201323 | 20 | 272 | 4.8 | 14.5 | 0.00 | 0.00 | 0.00 | 35 | 1008.0 |
| 20260503200622 | 20 | 314 | 6.4 | 22.5 | 0.00 | 0.00 | 0.00 | 38 | 1008.0 |
| 20260503200415 | 20 | 322 | 8.0 | 22.5 | 0.00 | 0.00 | 0.00 | 37 | 1008.1 |
| 20260503195925 | 20 | 283 | 1.6 | 16.1 | 0.00 | 0.00 | 0.00 | 40 | 1008.2 |
| 20260503195414 | 20 | 330 | 4.8 | 16.1 | 0.00 | 0.00 | 0.00 | 41 | 1008.2 |
| 20260503195222 | 20 | 330 | 4.8 | 16.1 | 0.00 | 0.00 | 0.00 | 41 | 1008.2 |
| 20260503194523 | 20 | 296 | 4.8 | 12.9 | 0.00 | 0.00 | 0.00 | 40 | 1008.3 |
| 20260503194414 | 20 | 289 | 6.4 | 19.3 | 0.00 | 0.00 | 0.00 | 40 | 1008.3 |
| 20260503193823 | 19 | 309 | 4.8 | 19.3 | 0.00 | 0.00 | 0.00 | 40 | 1008.3 |
| 20260503193414 | 19 | 324 | 8.0 | 14.5 | 0.00 | 0.00 | 0.00 | 38 | 1008.4 |
| 20260503193123 | 19 | 324 | 8.0 | 14.5 | 0.00 | 0.00 | 0.00 | 38 | 1008.4 |
| 20260503192414 | 19 | 259 | 6.4 | 19.3 | 0.00 | 0.00 | 0.00 | 41 | 1008.5 |
| 20260503191722 | 19 | 308 | 6.4 | 19.3 | 0.00 | 0.00 | 0.00 | 40 | 1008.4 |
| 20260503191414 | 19 | 330 | 6.4 | 16.1 | 0.00 | 0.00 | 0.00 | 39 | 1008.6 |
| 20260503191023 | 19 | 330 | 6.4 | 16.1 | 0.00 | 0.00 | 0.00 | 39 | 1008.6 |
| 20260503190416 | 19 | 291 | 4.8 | 16.1 | 0.00 | 0.00 | 0.00 | 41 | 1008.7 |
| 20260503190323 | 19 | 291 | 4.8 | 16.1 | 0.00 | 0.00 | 0.00 | 41 | 1008.7 |
| 20260503185625 | 19 | 294 | 6.4 | 16.1 | 0.00 | 0.00 | 0.00 | 41 | 1008.8 |
| 20260503185414 | 19 | 295 | 4.8 | 16.1 | 0.00 | 0.00 | 0.00 | 43 | 1008.9 |
| 20260503184925 | 19 | 320 | 8.0 | 22.5 | 0.00 | 0.00 | 0.00 | 40 | 1008.9 |
| 20260503184414 | 19 | 321 | 6.4 | 22.5 | 0.00 | 0.00 | 0.00 | 43 | 1008.9 |
| 20260503184226 | 19 | 321 | 6.4 | 22.5 | 0.00 | 0.00 | 0.00 | 43 | 1008.9 |
| 20260503183522 | 19 | 303 | 4.8 | 16.1 | 0.00 | 0.00 | 0.00 | 41 | 1009.1 |
| 20260503183414 | 19 | 336 | 6.4 | 16.1 | 0.00 | 0.00 | 0.00 | 42 | 1009.1 |
| 20260503182822 | 18 | 332 | 4.8 | 16.1 | 0.00 | 0.00 | 0.00 | 44 | 1009.0 |
| 20260503182414 | 18 | 261 | 4.8 | 17.7 | 0.00 | 0.00 | 0.00 | 45 | 1009.2 |
| 20260503182122 | 18 | 261 | 4.8 | 17.7 | 0.00 | 0.00 | 0.00 | 45 | 1009.2 |
| 20260503181416 | 18 | 335 | 8.0 | 20.9 | 0.00 | 0.00 | 0.00 | 42 | 1009.2 |